Location: Sommers-Bausch Observatory
(40.0037°N, 105.2635°W)
Time: 09:26:00
(UTC-06:00)

Daily predictions for brighter satellites

Satellite Brightness Start Highest point End
(mag) Time Altitude Azimuth Time Altitude Azimuth Time Altitude Azimuth
IRS-1A Rocket 4.4 18:26:15 10° SSE 18:32:03 65° ENE 18:37:54 10° N
YAOGAN 1 2.8 18:30:23 10° SSE 18:34:32 49° ENE 18:38:44 10° N
CZ-2C R/B 4.3 18:30:25 10° SSW 18:34:35 35° W 18:38:51 10° NNW
Cosmos 1269 Rocket 4.4 18:30:33 10° S 18:35:29 42° ESE 18:40:27 10° NNE
Cosmos 1315 Rocket 3.0 18:32:23 10° N 18:36:24 54° ENE 18:40:27 10° SSE
BREEZE-M R/B 3.9 18:35:18 10° SSE 18:36:50 15° SE 18:38:38 10° E
Meteor 2-1 Rocket 4.3 18:31:09 10° S 18:36:57 76° E 18:42:52 10° NNE
Iridium 4 Rocket 4.3 18:34:05 10° SSE 18:39:11 35° E 18:44:29 10° NNE
Cosmos 1484 Rocket 2.9 18:36:03 10° S 18:39:45 78° W 18:43:28 10° NNW
Cosmos 468 4.5 18:34:55 10° SSW 18:40:07 79° ESE 18:45:22 10° NNE
PSLV R/B 3.9 18:41:29 10° SW 18:44:25 37° SSE 18:47:13 11° E
Cosmos 44 Rocket 3.2 18:40:54 10° SSW 18:45:37 90° NW 18:50:20 10° NNE
Cosmos 1908 3.2 18:42:29 10° S 18:46:22 67° E 18:50:14 10° NNE
Cosmos 1452 Rocket 3.8 18:41:09 10° NNW 18:46:25 77° WSW 18:51:39 10° SSE
Cosmos 2084 4.3 18:43:33 10° N 18:46:46 25° NE 18:50:03 10° ESE
Cosmos 1703 3.7 18:44:13 10° NNW 18:48:07 68° W 18:51:59 10° S
Cosmos 2333 4.3 18:44:14 10° NNW 18:49:55 60° ENE 18:55:35 10° SE
Cosmos 2221 2.6 18:46:03 10° S 18:50:18 59° E 18:54:37 10° NNE
SPOT 3 Rocket 3.8 18:47:31 10° SE 18:52:29 48° ENE 18:57:29 10° N
Delta 2 Rocket 4.4 18:49:14 10° W 18:53:03 36° SSW 18:56:28 10° SE
Cosmos 921 Rocket 3.4 18:50:13 10° NNW 18:54:38 70° WSW 18:58:55 10° S
Cosmos 2237 Rocket 3.3 18:51:00 10° N 18:55:38 25° NE 19:00:14 10° ESE
Cosmos 2237 4.4 18:50:21 10° NNW 18:56:06 79° WSW 19:01:48 10° SSE
H-2A R/B 4.4 18:55:28 12° E 18:57:17 16° ENE 18:59:38 10° NNE
Cosmos 1934 Rocket 4.5 18:52:25 10° SSE 18:58:11 38° E 19:03:58 10° NNE
CZ-2C R/B 4.4 18:57:03 10° N 19:01:28 57° WNW 19:05:48 10° SSW
Cosmos 1821 Rocket 4.1 18:55:53 10° SSE 19:01:51 54° E 19:07:56 10° NNE
Cosmos 2227 Rocket 3.1 18:57:44 10° SSE 19:02:20 27° ESE 19:06:59 10° NE
SKYMED 2 3.5 18:58:28 10° NNE 19:02:49 70° ESE 19:07:08 10° S
Cosmos 2239 Rocket 4.5 19:00:36 10° S 19:06:35 59° E 19:12:37 10° NNE
Cosmos 158 Rocket 4.3 19:01:51 10° SSW 19:06:54 68° WNW 19:12:07 10° NNE
Cosmos 2098 Rocket 3.6 19:02:45 10° S 19:07:26 63° E 19:13:26 10° NNE
Cosmos 1300 3.3 19:04:08 10° SSE 19:07:36 34° E 19:11:05 10° NNE
SL-16 R/B 3.8 19:05:48 10° NNE 19:08:49 14° NE 19:09:55 14° ENE
GP-B 4.1 19:05:32 10° N 19:09:51 51° W 19:14:08 10° SSW
Cosmos 2360 Rocket 4.0 19:09:49 10° NW 19:14:54 35° WSW 19:19:59 10° SSW
Abrixas 3.7 19:14:24 10° WNW 19:16:07 21° NNW 19:16:53 17° N
ALOS 2.3 19:13:28 10° SSE 19:18:03 59° ENE 19:22:39 10° N
Cosmos 1048 Rocket 4.4 19:14:28 10° SSW 19:19:32 63° WNW 19:24:38 10° NNE
Atlas Centaur 2 4.2 19:18:51 10° SW 19:20:14 11° SSW 19:21:42 10° S
Gbstr 26 Del rocket 3.6 19:15:33 10° NW 19:20:34 89° SSW 19:26:24 12° SE
Cosmos 1980 4.1 19:15:18 10° N 19:20:37 40° ENE 19:24:57 15° SE
FENGYUN 3A 3.6 19:18:01 10° SSE 19:23:21 66° ENE 19:28:44 10° N
Meteor 2-10 4.0 19:19:47 10° S 19:24:42 57° E 19:29:44 10° NNE
ERS-2 4.5 19:24:09 10° SSW 19:27:20 27° W 19:30:34 10° NW
Cosmos 2251 Rocket 3.9 19:25:31 10° SSE 19:30:23 39° ESE 19:34:46 13° NE
Cosmos 1726 2.5 19:28:52 10° SSW 19:32:31 66° W 19:36:12 10° N
BREEZE-M DEB (TANK) 3.9 19:31:33 10° WNW 19:32:55 15° NNW 19:33:16 15° N
COSMOS 2428 3.3 19:27:24 10° NNW 19:32:58 58° WSW 19:38:32 10° S
Cosmos 2123 Rocket 4.0 19:27:53 10° N 19:34:04 60° E 19:40:16 10° SSE
Cosmos 2219 3.8 19:28:55 10° SW 19:34:34 59° WNW 19:40:15 10° NNE
Hubble Space Telescope 2.9 19:32:13 10° SSW 19:34:36 15° S 19:35:51 13° SSE
Meteor 2-3 Rocket 4.5 19:29:43 10° NNE 19:34:42 29° ENE 19:35:42 28° E
Cosmos 2333 Rocket 2.1 19:30:01 10° NNW 19:35:48 77° ENE 19:41:34 10° SSE
Cosmos 1605 Rocket 4.0 19:30:36 10° SSE 19:36:27 51° E 19:42:18 10° NNE
Cosmos 2297 Rocket 2.4 19:33:52 10° S 19:39:12 45° ESE 19:42:52 19° NE
BREEZE-M DEB (TANK) 4.1 19:20:09 10° WNW 19:39:34 62° NNE 19:42:22 30° E
NOSS 0 Rocket 3.8 19:33:50 10° NNW 19:40:01 74° ENE 19:46:09 10° SSE
SAR-Lupe-3 4.4 19:36:46 10° NNE 19:40:21 73° ESE 19:43:55 10° S
Sich 1 2.9 19:38:02 10° N 19:42:27 86° E 19:46:52 10° S
NOAA 12 4.4 19:41:18 10° S 19:46:34 70° WSW 19:51:54 10° NNW
Cosmos 2082 3.7 19:45:07 10° S 19:50:41 56° ESE 19:54:11 23° NE
COSMO-SKYMED 1 4.3 19:46:50 10° N 19:50:44 34° WNW 19:54:39 10° SW
USA 267 4.1 19:52:07 27° SE 19:52:07 27° SE 19:57:24 10° S
Thor Agena Rocket 3.3 19:47:23 10° NNE 19:52:29 81° ESE 19:57:31 10° SSW
Cosmos 1331 Rocket 3.8 19:47:49 10° NNW 19:53:04 79° ENE 19:56:56 18° SSE
Resurs 01 Rocket 3.8 19:58:52 13° NNE 19:58:52 13° NNE 19:59:34 10° NNE
Abrixas rocket 3.6 19:54:13 10° NW 19:56:28 29° N 19:56:28 29° N
Cosmos 2219 Rocket 2.8 19:55:31 10° NNW 20:00:59 55° WSW 20:06:26 10° S
Centaur D AC-29 3.3 20:01:48 10° WSW 20:07:16 19° SSW 20:08:57 16° S
FengYun 1-2 T 4.2 20:03:28 10° SSE 20:08:58 85° WSW 20:14:28 10° NNW
Cosmos 2228 Rocket 3.0 20:06:31 10° S 20:11:03 85° E 20:15:39 10° N
Cosmos 1447 Rocket 4.4 20:04:56 10° N 20:11:13 64° E 20:13:50 36° SSE
Cosmos 1328 Rocket 3.6 20:08:02 10° SSW 20:12:25 75° W 20:16:48 10° N
Cosmos 1633 Rocket 3.8 20:09:57 10° NNW 20:14:16 52° W 20:18:33 10° S
CZ-4C R/B 3.9 20:10:38 10° WSW 20:15:17 29° NW 20:20:31 10° NNE
Cosmos 1302 Rocket 3.8 20:18:03 10° NNW 20:23:12 82° NE 20:23:12 82° NE
Meteor 1-27 4.2 20:24:39 10° S 20:30:22 86° W 20:36:13 10° N
H-2A R/B 4.2 20:30:41 35° WSW 20:31:12 37° W 20:34:53 10° NNW
Cosmos 2237 Rocket 3.0 20:34:28 10° NW 20:39:57 50° WSW 20:42:12 32° SSW
Cosmos 2227 Rocket 3.3 20:40:48 10° SW 20:46:08 42° WNW 20:50:00 18° N
BREEZE M DEB (TANK) 4.0 20:39:54 10° WNW 20:51:22 72° NW 20:51:22 72° NW
SL-16 R/B 3.0 20:48:03 10° NNW 20:51:50 44° NNW 20:51:50 44° NNW
MOS 1-B Rocket 4.1 20:53:43 64° WSW 20:54:00 65° WSW 21:00:12 10° NNW
Cosmos 2297 Rocket 4.1 21:18:43 10° WSW 21:23:26 26° NW 21:24:46 24° NNW
